�������l�o���
Date,Time,MP-1(��Sv/h),MP-2(��Sv/h),MP-3(��Sv/h),MP-4(��Sv/h),MP-5(��Sv/h),MP-6(��Sv/h),MP-7(��Sv/h),MP-8(��Sv/h),����,����(m/s),���J
2018/12/11,00:00,0.770,1.160,0.816,1.473,1.051,0.445,0.794,0.753,�k��,8.3,��
2018/12/11,00:10,0.769,1.163,0.814,1.471,1.051,0.446,0.795,0.753,�k��,6.9,��
2018/12/11,00:20,0.769,1.160,0.816,1.469,1.051,0.444,0.794,0.754,�k��,6.2,��
2018/12/11,00:30,0.770,1.163,0.817,1.472,1.053,0.445,0.794,0.754,�k��,6.1,��
2018/12/11,00:40,0.769,1.163,0.816,1.471,1.050,0.445,0.795,0.753,���k��,6.0,��
2018/12/11,00:50,0.770,1.159,0.815,1.471,1.050,0.446,0.793,0.752,���k��,5.7,��
2018/12/11,01:00,0.771,1.161,0.815,1.471,1.050,0.445,0.793,0.754,���k��,5.8,��
2018/12/11,01:10,0.770,1.162,0.814,1.474,1.050,0.445,0.794,0.752,���k��,6.1,��
2018/12/11,01:20,0.768,1.161,0.815,1.469,1.051,0.446,0.794,0.752,���k��,6.6,��
2018/12/11,01:30,0.769,1.161,0.815,1.471,1.052,0.445,0.792,0.752,���k��,5.9,��
2018/12/11,01:40,0.770,1.162,0.815,1.469,1.049,0.446,0.793,0.754,���k��,4.8,��
2018/12/11,01:50,0.770,1.160,0.816,1.471,1.050,0.446,0.792,0.753,���k��,4.0,��
2018/12/11,02:00,0.769,1.160,0.815,1.468,1.050,0.445,0.791,0.752,���k��,4.4,��
2018/12/11,02:10,0.770,1.162,0.814,1.471,1.049,0.446,0.793,0.753,���k��,4.4,��
2018/12/11,02:20,0.769,1.160,0.814,1.470,1.050,0.445,0.793,0.751,�k��,4.8,��
2018/12/11,02:30,0.770,1.162,0.814,1.471,1.050,0.444,0.793,0.751,�k��,5.2,��
2018/12/11,02:40,0.768,1.159,0.815,1.470,1.050,0.446,0.792,0.753,���k��,5.2,��
2018/12/11,02:50,0.769,1.159,0.814,1.473,1.048,0.444,0.792,0.752,���k��,4.6,��
2018/12/11,03:00,0.771,1.160,0.814,1.469,1.051,0.444,0.791,0.752,���k��,4.3,��
2018/12/11,03:10,0.770,1.161,0.813,1.470,1.051,0.446,0.793,0.753,�k��,4.6,��
2018/12/11,03:20,0.770,1.161,0.817,1.472,1.048,0.445,0.793,0.752,�k��,4.6,��
2018/12/11,03:30,0.768,1.161,0.815,1.472,1.047,0.444,0.791,0.751,���k��,4.7,��
2018/12/11,03:40,0.768,1.160,0.814,1.470,1.049,0.443,0.791,0.752,�k��,4.9,��
2018/12/11,03:50,0.769,1.160,0.816,1.476,1.048,0.445,0.793,0.752,�k��,4.1,��
2018/12/11,04:00,0.769,1.160,0.815,1.470,1.048,0.443,0.795,0.752,�k��,6.0,��
2018/12/11,04:10,0.768,1.162,0.816,1.471,1.048,0.446,0.791,0.751,�k��,6.1,��
2018/12/11,04:20,0.769,1.160,0.814,1.472,1.048,0.445,0.792,0.751,�k��,6.0,��
2018/12/11,04:30,0.767,1.161,0.814,1.472,1.050,0.446,0.792,0.752,�k��,5.7,��
2018/12/11,04:40,0.767,1.160,0.816,1.469,1.048,0.445,0.790,0.751,���k��,5.5,��
2018/12/11,04:50,0.767,1.162,0.816,1.470,1.048,0.444,0.791,0.750,���k��,4.6,��
2018/12/11,05:00,0.769,1.161,0.814,1.470,1.051,0.445,0.791,0.751,���k��,3.6,��
2018/12/11,05:10,0.767,1.157,0.814,1.472,1.047,0.445,0.792,0.752,��,2.5,��
2018/12/11,05:20,0.768,1.158,0.815,1.471,1.045,0.444,0.793,0.750,��,2.5,��
2018/12/11,05:30,0.767,1.158,0.815,1.468,1.046,0.444,0.792,0.751,�k��,3.7,��
2018/12/11,05:40,0.767,1.160,0.815,1.471,1.050,0.442,0.791,0.751,�k��,5.3,��
2018/12/11,05:50,0.768,1.161,0.815,1.472,1.048,0.444,0.792,0.752,�k��,5.2,��
2018/12/11,06:00,0.769,1.159,0.815,1.470,1.046,0.445,0.793,0.752,�k��,4.6,��
2018/12/11,06:10,0.769,1.161,0.815,1.471,1.050,0.444,0.792,0.752,�k��,5.2,��
2018/12/11,06:20,0.768,1.161,0.814,1.471,1.049,0.445,0.791,0.753,���k��,5.7,��
2018/12/11,06:30,0.767,1.158,0.815,1.472,1.049,0.443,0.790,0.753,���k��,5.7,��
2018/12/11,06:40,0.769,1.158,0.816,1.469,1.046,0.443,0.792,0.752,���k��,5.4,��
2018/12/11,06:50,0.767,1.158,0.815,1.471,1.047,0.445,0.793,0.752,���k��,4.0,��
2018/12/11,07:00,0.766,1.160,0.812,1.472,1.048,0.445,0.792,0.752,���쐼,3.3,��
2018/12/11,07:10,0.770,1.159,0.815,1.471,1.047,0.445,0.791,0.752,���쐼,3.7,��
2018/12/11,07:20,0.767,1.158,0.813,1.470,1.045,0.445,0.793,0.752,��,4.9,��
2018/12/11,07:30,0.768,1.158,0.815,1.469,1.046,0.444,0.792,0.754,��,4.6,��
2018/12/11,07:40,0.767,1.159,0.813,1.469,1.048,0.443,0.794,0.752,��,3.2,��
2018/12/11,07:50,0.768,1.157,0.812,1.469,1.046,0.444,0.793,0.752,���k��,3.0,��
2018/12/11,08:00,0.770,1.156,0.814,1.468,1.046,0.444,0.793,0.753,���k��,2.2,��
2018/12/11,08:10,0.770,1.158,0.814,1.469,1.049,0.444,0.793,0.752,-,CALM,��
2018/12/11,08:20,0.769,1.159,0.813,1.468,1.048,0.444,0.792,0.752,��,0.6,��
2018/12/11,08:30,0.767,1.157,0.812,1.471,1.047,0.444,0.793,0.752,��쓌,0.6,��
2018/12/11,08:40,0.770,1.159,0.814,1.471,1.047,0.444,0.794,0.753,-,CALM,��
2018/12/11,08:50,0.769,1.154,0.813,1.468,1.047,0.446,0.794,0.751,��,0.9,��
2018/12/11,09:00,0.768,1.157,0.812,1.471,1.047,0.444,0.794,0.751,��,1.4,��
2018/12/11,09:10,0.769,1.158,0.816,1.470,1.050,0.445,0.793,0.754,��,1.7,��
2018/12/11,09:20,0.770,1.158,0.817,1.470,1.050,0.444,0.794,0.753,�k��,1.1,��
2018/12/11,09:30,0.773,1.155,0.815,1.471,1.049,0.442,0.796,0.753,�k��,0.6,��
2018/12/11,09:40,0.769,1.156,0.815,1.471,1.037,0.445,0.794,0.754,�k��,0.9,��
2018/12/11,09:50,0.772,1.157,0.815,1.470,1.032,0.444,0.796,0.754,�k�k��,0.9,��
2018/12/11,10:00,0.771,1.155,0.816,1.464,1.052,0.444,0.793,0.753,��,1.5,��
2018/12/11,10:10,0.772,1.157,0.809,1.467,1.053,0.445,0.792,0.752,�k��,1.2,��
2018/12/11,10:20,0.772,1.155,0.811,1.470,1.051,0.444,0.793,0.754,�k��,1.2,��
2018/12/11,10:30,0.771,1.158,0.816,1.471,1.052,0.444,0.792,0.754,�k�k��,1.2,��
2018/12/11,10:40,0.773,1.159,0.817,1.473,1.054,0.443,0.793,0.755,���k��,1.2,��
2018/12/11,10:50,0.772,-,0.816,1.473,1.053,0.445,0.791,0.754,�k,1.2,��
2018/12/11,11:00,0.772,-,0.816,1.473,1.052,0.446,0.793,0.754,�k��,1.2,��
2018/12/11,11:10,0.773,-,0.816,1.472,1.053,0.445,0.792,0.754,�k�k��,1.1,��
2018/12/11,11:20,0.772,-,0.817,1.473,1.052,0.447,0.793,0.753,�k��,1.5,��
2018/12/11,11:30,0.774,-,0.815,1.473,1.056,0.446,0.793,0.753,�k��,1.7,��
2018/12/11,11:40,0.772,-,0.818,1.474,1.052,0.447,0.794,0.753,�k��,1.5,��
2018/12/11,11:50,0.772,-,0.819,1.476,1.053,0.446,0.793,0.753,���k��,1.2,��
2018/12/11,12:00,0.774,-,0.819,1.475,1.054,0.447,0.794,0.754,�k��,0.9,��
2018/12/11,12:10,0.772,-,0.819,1.472,1.054,0.447,0.793,0.753,-,CALM,��
2018/12/11,12:20,0.772,-,0.818,1.473,1.055,0.446,0.794,0.755,�k,1.2,��
2018/12/11,12:30,0.773,-,0.817,1.474,1.055,0.445,0.795,0.753,�k,1.5,��
2018/12/11,12:40,0.773,-,0.817,1.474,1.054,0.446,0.795,0.755,�k�k��,1.5,��
2018/12/11,12:50,0.775,-,0.817,1.475,1.056,0.447,0.793,0.755,�k�k��,2.3,��
2018/12/11,13:00,0.775,-,0.817,1.475,1.056,0.446,0.794,0.755,�k�k��,2.0,��
2018/12/11,13:10,0.774,-,0.819,1.475,1.058,0.447,0.793,0.755,�k��,2.0,��
2018/12/11,13:20,0.775,-,0.818,1.476,1.056,0.448,0.792,0.754,���k��,2.2,��
2018/12/11,13:30,0.775,-,0.818,1.474,1.055,0.448,0.795,0.754,���k��,1.7,��
2018/12/11,13:40,0.774,1.162,0.817,1.473,1.057,0.447,0.794,0.755,���쓌,2.2,��
2018/12/11,13:50,0.773,1.156,0.817,1.475,1.056,0.448,0.794,0.755,���k��,3.2,��
2018/12/11,14:00,0.774,1.159,0.819,1.476,1.056,0.447,0.794,0.757,���k��,2.6,��
2018/12/11,14:10,0.776,1.156,0.819,1.474,1.056,0.448,0.797,0.756,�k��,2.0,��
2018/12/11,14:20,0.774,1.160,0.819,1.473,1.057,0.446,0.795,0.755,�k��,2.3,��
2018/12/11,14:30,0.775,1.159,0.818,1.475,1.056,0.449,0.794,0.754,�k��,2.3,��
2018/12/11,14:40,0.775,1.160,0.818,1.477,1.056,0.447,0.796,0.756,���k��,2.3,��
2018/12/11,14:50,0.771,1.158,0.818,1.476,1.057,0.446,0.797,0.754,�k��,3.0,��
2018/12/11,15:00,0.774,1.159,0.817,1.477,1.057,0.446,0.797,0.755,�k��,2.8,��
2018/12/11,15:10,0.774,1.158,0.818,1.474,1.055,0.448,0.796,0.756,�k��,2.9,��
2018/12/11,15:20,0.772,1.164,0.818,1.475,1.056,0.447,0.796,0.756,���k��,1.9,��
2018/12/11,15:30,0.775,1.165,0.819,1.476,1.054,0.448,0.797,0.755,�k�k��,1.2,��
2018/12/11,15:40,0.774,1.164,0.819,1.474,1.057,0.448,0.796,0.755,���k��,1.7,��
2018/12/11,15:50,0.774,1.163,0.818,1.475,1.054,0.449,0.797,0.754,��,2.3,��
2018/12/11,16:00,0.774,1.165,0.819,1.473,1.055,0.449,0.796,0.754,���쓌,1.1,��
2018/12/11,16:10,0.774,1.166,0.817,1.475,1.055,0.450,0.795,0.754,�쓌,1.5,��
2018/12/11,16:20,0.773,1.167,0.817,1.474,1.055,0.450,0.796,0.755,���쓌,1.5,��
2018/12/11,16:30,0.773,1.163,0.818,1.475,1.055,0.448,0.796,0.754,���k��,0.6,��
2018/12/11,16:40,0.771,1.163,0.816,1.476,1.056,0.448,0.795,0.752,-,CALM,��
2018/12/11,16:50,0.772,1.163,0.817,1.473,1.055,0.450,0.795,0.752,�k��,0.6,��
2018/12/11,17:00,0.771,1.167,0.816,1.473,1.055,0.450,0.793,0.754,�k�k��,1.1,��
2018/12/11,17:10,0.774,1.165,0.819,1.474,1.055,0.449,0.794,0.753,�k��,2.0,��
2018/12/11,17:20,0.772,1.165,0.817,1.473,1.055,0.447,0.793,0.754,�k�k��,1.4,��
2018/12/11,17:30,0.773,1.165,0.818,1.471,1.055,0.448,0.794,0.755,-,CALM,��
2018/12/11,17:40,0.774,1.162,0.818,1.476,1.055,0.448,0.797,0.753,��,1.2,��
2018/12/11,17:50,0.774,1.164,0.819,1.474,1.056,0.449,0.794,0.754,��,1.5,��
2018/12/11,18:00,0.773,1.167,0.818,1.473,1.056,0.449,0.796,0.754,��,1.7,��
2018/12/11,18:10,0.774,1.167,0.819,1.473,1.056,0.448,0.794,0.754,�쐼,2.3,��
2018/12/11,18:20,0.773,1.165,0.819,1.476,1.055,0.446,0.796,0.755,���쐼,1.5,��
2018/12/11,18:30,0.776,1.165,0.820,1.476,1.058,0.446,0.794,0.753,���쐼,1.9,��
2018/12/11,18:40,0.773,1.166,0.819,1.474,1.056,0.448,0.797,0.755,���쐼,1.9,��
2018/12/11,18:50,0.775,1.167,0.818,1.476,1.056,0.448,0.796,0.753,�쐼,2.2,��
2018/12/11,19:00,0.774,1.167,0.819,1.476,1.055,0.449,0.797,0.753,��쐼,1.9,��
2018/12/11,19:10,0.772,1.164,0.820,1.472,1.057,0.450,0.797,0.755,��쐼,2.6,��
2018/12/11,19:20,0.772,1.165,0.819,1.475,1.055,0.448,0.795,0.754,�쐼,2.5,��
2018/12/11,19:30,0.774,1.164,0.820,1.475,1.055,0.448,0.794,0.754,�쐼,2.5,��
2018/12/11,19:40,0.775,1.166,0.821,1.477,1.055,0.450,0.794,0.754,��쐼,2.3,��
2018/12/11,19:50,0.774,1.167,0.819,1.476,1.056,0.448,0.793,0.753,�쐼,2.8,��
2018/12/11,20:00,0.773,1.164,0.819,1.476,1.056,0.448,0.795,0.755,���쐼,2.8,��
2018/12/11,20:10,0.773,1.165,0.820,1.472,1.055,0.449,0.795,0.756,���쐼,2.6,�L
2018/12/11,20:20,0.773,1.164,0.820,1.476,1.056,0.449,0.797,0.754,�쐼,2.9,�L
2018/12/11,20:30,0.775,1.168,0.821,1.475,1.056,0.448,0.796,0.753,��쓌,1.7,�L
2018/12/11,20:40,0.776,1.167,0.820,1.475,1.058,0.449,0.797,0.754,��쐼,2.6,�L
2018/12/11,20:50,0.777,1.167,0.821,1.478,1.058,0.451,0.796,0.756,��쐼,2.3,�L
2018/12/11,21:00,0.777,1.166,0.821,1.478,1.057,0.450,0.796,0.755,�쐼,2.2,�L
2018/12/11,21:10,0.774,1.163,0.819,1.475,1.054,0.451,0.794,0.754,��,4.1,�L
2018/12/11,21:20,0.773,1.159,0.818,1.472,1.053,0.451,0.793,0.755,�쓌,0.9,�L
2018/12/11,21:30,0.771,1.155,0.816,1.466,1.047,0.451,0.791,0.753,�k��,4.5,�L
2018/12/11,21:40,0.771,1.151,0.815,1.468,1.046,0.451,0.792,0.752,�k,1.2,�L
2018/12/11,21:50,0.767,1.147,0.813,1.461,1.045,0.450,0.792,0.749,�k��,3.1,�L
2018/12/11,22:00,0.767,1.144,0.812,1.461,1.041,0.450,0.791,0.748,�k��,3.2,�L
2018/12/11,22:10,0.767,1.142,0.812,1.461,1.039,0.449,0.790,0.750,�k��,3.0,�L
2018/12/11,22:20,0.764,1.143,0.810,1.457,1.038,0.449,0.789,0.748,�k��,2.9,�L
2018/12/11,22:30,0.765,1.140,0.809,1.460,1.037,0.449,0.789,0.749,�k��,3.2,�L
2018/12/11,22:40,0.764,1.139,0.810,1.457,1.039,0.446,0.790,0.747,�k��,3.3,�L
2018/12/11,22:50,0.762,1.136,0.809,1.458,1.036,0.448,0.788,0.748,�k��,4.3,�L
2018/12/11,23:00,0.761,1.138,0.809,1.453,1.035,0.446,0.787,0.747,�k��,3.5,�L
2018/12/11,23:10,0.763,1.135,0.806,1.452,1.033,0.447,0.787,0.748,�k��,3.9,�L
2018/12/11,23:20,0.761,1.134,0.808,1.453,1.033,0.449,0.788,0.748,�k��,4.5,�L
2018/12/11,23:30,0.760,1.134,0.805,1.452,1.031,0.445,0.787,0.748,�k��,4.1,�L
2018/12/11,23:40,0.759,1.135,0.804,1.451,1.030,0.445,0.787,0.747,�k��,4.2,�L
2018/12/11,23:50,0.762,1.135,0.804,1.455,1.031,0.445,0.788,0.747,�k��,3.7,�L
